Simultaneous Nadir Overpasses (SNOs) Predictions

Prediction of SNOs between GOES-15 and LANDSAT-8 Satellite Orbit:

Table of predicted SNOs for the next 14.0 days since TLE Epoch: 11/28/2020
Index Date Time (GOES-15) GOES-15 Lat,Lon LANDSAT-8 Lat,Lon Distance(km) Time Diff (sec)
1 11/29/2020 06:36:37 -0.21,-127.89 0.25,-125.69 250.79 80
2 11/29/2020 18:55:13 0.20,-127.88 0.81,-130.85 337.13 80
3 12/01/2020 18:45:42 0.20,-127.93 0.18,-127.89 4.73 80
4 12/03/2020 18:33:31 0.21,-127.98 -0.45,-124.94 345.72 80
5 12/04/2020 06:52:15 -0.20,-128.01 -0.67,-130.13 241.15 80
6 12/06/2020 06:42:44 -0.21,-128.05 -0.03,-127.17 99.40 80
7 12/06/2020 19:01:19 0.19,-128.04 1.10,-132.34 488.78 80
8 12/08/2020 06:30:33 -0.21,-128.09 0.62,-124.22 439.63 80
9 12/08/2020 18:49:08 0.20,-128.07 0.45,-129.38 148.77 80
10 12/10/2020 18:39:37 0.20,-128.10 -0.14,-126.42 190.82 80
11 12/11/2020 06:58:21 -0.18,-128.13 -0.91,-131.62 396.83 80
